Location: Colconda
(10.2500°N, 61.4333°W)
Time: 05:08:29
(UTC+00:00)

Daily predictions for brighter satellites

Satellite Brightness Start Highest point End
(mag) Time Altitude Azimuth Time Altitude Azimuth Time Altitude Azimuth
Atlas Centaur 2 3.7 00:17:35 10° NW 00:23:26 40° NNW 00:23:26 40° NNW
CZ-3B DEB 3.8 07:26:40 43° SSE 07:28:57 55° ESE 07:46:04 10° NE
Cosmos 2237 Rocket 4.4 07:26:30 10° NNE 07:30:42 21° ENE 07:34:52 10° ESE
ADEOS II 3.6 07:30:21 10° NE 07:35:00 32° E 07:36:50 26° SE
ARIANE 5 DEB (SYLDA) 4.3 07:38:55 54° S 07:38:55 54° S 07:56:34 10° E
CZ-4C R/B 2.9 07:43:09 83° S 07:43:09 83° S 07:50:47 10° SSE
Hubble Space Telescope 3.7 07:48:09 12° NE 07:48:09 12° NE 07:48:53 10° NE
Cosmos 1607 4.3 07:55:55 52° S 07:55:55 52° S 08:00:35 10° SSE
Stardust Del rocket 4.2 08:02:59 65° SE 08:02:59 65° SE 08:10:02 10° ESE
Cosmos 990 Rocket 4.0 08:03:26 78° ENE 08:03:26 78° ENE 08:08:29 10° NNE
CZ-2C R/B 4.2 08:01:45 10° SSE 08:05:18 53° SE 08:05:18 53° SE
Cosmos 2219 Rocket 2.0 08:07:47 80° SW 08:07:47 80° SW 08:13:18 10° SSE
CZ-3C R/B 3.2 08:12:42 12° SSE 08:13:33 13° SE 08:15:34 10° ESE
ISS -1.4 08:14:49 31° E 08:14:49 31° E 08:17:02 10° ESE
NOSS 3-2 (A) 4.5 08:07:45 10° NNW 08:15:40 64° ENE 08:23:46 10° SE
ARIANE 5 DEB (SYLDA) 3.8 08:14:44 33° SSW 08:15:47 36° S 08:20:04 10° ESE
Cosmos 1000 Rocket 4.4 08:12:55 21° SSW 08:17:17 64° W 08:23:32 10° N
USA 215 3.6 08:11:37 10° SE 08:18:03 61° NE 08:24:29 10° NNW
USA 238 DEB 4.0 08:21:30 44° WSW 08:21:35 44° WSW 08:28:12 10° S
USA 238 3.9 08:21:30 44° WSW 08:21:41 44° WSW 08:28:19 10° S
MOS 1 Rocket 3.8 08:20:53 10° NNE 08:25:58 69° E 08:31:18 10° S
Cosmos 923 Rocket 4.0 08:25:14 48° NW 08:26:24 59° WSW 08:31:36 10° S
ARIANE 5 DEB (SYLDA) 4.4 08:27:05 39° WSW 08:29:16 66° S 08:59:43 10° E
ARIANE 5 DEB (SYLDA) 4.4 08:27:05 38° WSW 08:29:17 66° S 08:59:43 10° E
GPS 2-17 Rocket1 3.2 08:30:11 48° NNW 08:30:25 48° NNW 08:34:37 10° ENE
Cosmos 2263 Rocket 4.1 08:26:42 10° SSE 08:31:30 30° ESE 08:36:17 10° NE
CZ-3A R/B 3.8 08:27:51 27° WNW 08:32:03 35° NNW 08:36:15 10° NE
COBE Rocket 3.8 08:27:43 10° NNE 08:32:22 79° E 08:37:00 10° S
Cosmos 2228 4.2 08:29:00 10° NNE 08:33:09 44° E 08:37:15 10° SSE
Cosmos 1125 Rocket 4.1 08:32:08 10° S 08:37:13 57° ESE 08:42:18 10° NNE
Cosmos 2123 Rocket 3.9 08:33:02 10° S 08:39:13 82° W 08:45:23 10° N
Cosmos 2016 Rocket 4.4 08:33:02 10° N 08:39:14 64° E 08:45:20 10° SSE
FALCON 9 R/B 4.3 08:36:48 16° NW 08:40:58 25° N 08:54:36 10° NE
GPS 2-14 Rocket1 3.7 08:43:29 31° NW 08:44:23 34° NNW 08:48:10 10° NE
Cosmos 2173 Rocket 3.8 08:38:30 10° N 08:44:36 76° W 08:50:49 10° S
H-2A ROCKET BODY 3.8 08:42:13 13° SSW 08:46:04 44° SE 09:02:54 10° ENE
Palapa 6 Rocket 4.2 08:43:41 20° NW 08:46:12 34° NNE 08:50:01 10° E
ADEOS Rocket 3.8 08:41:09 10° NNW 08:46:27 27° WNW 08:47:08 26° W
Meteor 1-15 Rocket 4.1 08:44:15 10° N 08:49:51 80° W 08:55:34 10° S
CZ-4B R/B 3.6 08:46:13 10° N 08:49:53 59° WNW 08:53:28 10° SSW
Cosmos 1459 Rocket 4.0 08:45:38 10° NNW 08:51:50 62° W 08:57:57 10° S
Cosmos 2333 Rocket 2.7 08:48:09 15° NW 08:52:19 36° WSW 08:57:26 10° S
NOSS 3-2 (C) 4.1 08:46:12 10° NNW 08:54:15 86° WSW 09:02:28 10° SSE
Cosmos 1515 4.0 08:51:53 10° SSW 08:55:32 42° W 08:59:10 10° NNW
Cosmos 972 4.4 08:50:46 10° S 08:55:39 87° E 09:00:52 10° NNE
NOSS 0 Rocket 4.5 08:50:19 10° NW 08:55:53 35° WSW 09:01:27 10° SSW
USA 116 4.5 08:50:47 10° SSE 08:56:10 86° ENE 09:01:16 10° N
Meteor 1-31 Rocket 3.1 08:52:59 10° N 08:56:43 43° WNW 09:00:28 10° SSW
Cosmos 2058 Rocket 3.2 08:53:45 10° NNW 08:57:57 49° W 09:02:11 10° SSW
Okean-O 3.9 08:54:44 10° NNW 08:57:36 21° WNW 08:57:36 21° WNW
Centaur D-1A AC-35 4.4 09:03:58 10° NNW 09:05:03 11° NNW 09:06:06 10° N
USA 234 4.0 08:59:15 10° NE 09:05:36 54° SE 09:11:56 10° SSW
Cosmos 1340 2.6 09:05:25 10° SSW 09:09:08 61° W 09:12:52 10° N
NOAA 6 4.2 09:04:20 10° N 09:09:20 52° WNW 09:14:20 10° SSW
Cosmos 1666 4.1 09:10:16 10° NW 09:12:53 18° W 09:15:29 10° SW
NATO 3D Rocket 3.8 09:08:27 11° WSW 09:13:56 60° SSE 09:18:36 10° E
ADEOS II 3.5 09:11:13 10° NW 09:14:24 16° WNW 09:17:36 10° WSW
Cosmos 2237 Rocket 3.0 09:09:53 10° NW 09:14:30 27° WSW 09:19:09 10° SSW
ATLAS 5 CENTAUR R/B 2.6 09:10:58 10° NW 09:17:20 60° WSW 09:23:50 10° S
Iridium 4 Rocket 4.3 09:12:38 10° SSE 09:17:55 56° E 09:22:43 10° NNE
Radarsat Rocket 4.1 09:14:15 10° N 09:20:07 50° WNW 09:25:43 10° SSW
Hubble Space Telescope 1.6 09:24:36 10° NW 09:28:36 47° NNE 09:32:35 10° E
Cosmos 1953 Rocket 3.6 09:24:54 10° S 09:29:18 89° ESE 09:33:45 10° N
ARIANE 5 DEB (SYLDA) 3.5 09:31:36 10° SW 09:33:23 16° SSW 09:34:54 10° SSE
SL-16 R/B 2.4 09:29:37 10° NNW 09:35:03 49° WSW 09:40:28 10° S
